WICT2: Wichita River At Wichita Falls, TX

Data processed at Fri Dec 08 2017 23:58


All information presented herein is the property of the government of the United States of America and may be revised or deleted at any time without prior notice.
Dissemination of this information without the expressed written consent of the Public Affairs Office, Tulsa District U.S. Army Corps of Engineers is strictly prohibited.
These data are gathered electronically and, as presented, have not undergone any form of quality control. These data are not guaranteed to be valid or correct.
Go to home page.
Go to station list.

Upstream stations:

Downstream station:
Previous Day
Next Day
Current Day
    
SHEF ID:       WICT2     Wichita Rv at Wichita Falls, TX
STATION TYPE:  

               PRECIP     STAGE  RIV-FLOW  WTR-TEMP   CONDUCT  BAT-LOAD
                   in        ft       cfs         F   umho/cm      volt
              Ccp-Rev   Ccp-Rev   Ccp-Rev   Ccp-Rev   Ccp-Rev   Ccp-Rev
(US/Central)
12/06 00:00      0.00      2.62        33     51.76      6035     12.33
12/06 01:00      0.00      2.62        33     51.57      6101     12.33
12/06 02:00      0.00      2.62        33     51.48      6137     12.25
12/06 03:00      0.00      2.62        33     51.24      6158     12.25
12/06 04:00      0.00      2.62        33     50.97      6165     12.25
12/06 05:00      0.00      2.62        33     50.74      6172     12.25
12/06 06:00      0.00      2.62        33     50.59      6169     12.25
12/06 07:00      0.00      2.62        33     50.41      6176     12.25
12/06 08:00      0.00      2.62        33     50.20      6183     12.25
12/06 09:00      0.00      2.62        33     50.16      6185     12.41
12/06 10:00      0.00      2.62        33     50.14      6193     12.65
12/06 11:00      0.00      2.62        33     50.27      6192     12.89
12/06 12:00      0.00      2.62        33     50.52      6190     13.05
12/06 13:00      0.00      2.62        33     50.85      6184     13.29
12/06 14:00      0.00      2.62        33     51.15      6170     13.29
12/06 15:00      0.00      2.62        33     51.40      6149     13.21
12/06 16:00      0.00      2.62        33     51.57      6137     13.13
12/06 17:00      0.00      2.62        33     51.57      6130     12.81
12/06 18:00      0.00      2.62        33     51.37      6123     12.65
12/06 19:00      0.00      2.62        33     51.17      6117     12.57
12/06 20:00      0.00      2.62        33     50.92      6106     12.57
12/06 21:00      0.00      2.62        33     50.40      6103     12.49
12/06 22:00      0.00      2.62        33     50.04      6092     12.49
12/06 23:00      0.00      2.61        33     49.68      6083     12.41